Wind_Speed
33 34 33 32 31 30 30 29 27 26 26 25 23 22 22 21 19 17 17 15 14 14 13 12 11 10 10 9 9 9 9 7 6 5 4 3 3 3 4 4 4 4
33 33 33 32 32 31 31 29 28 26 26 25 24 22 22 21 19 18 18 16 15 14 14 13 12 11 11 10 10 9 10 9 7 7 6 5 4 4 4 5 5 5
33 33 33 32 32 32 31 30 28 27 25 25 24 24 23 21 19 18 18 18 17 15 15 14 13 12 12 12 11 10 10 10 9 9 8 7 6 6 5 6 6 6
34 34 33 32 31 31 31 30 29 27 26 25 25 25 24 23 20 19 19 19 19 17 16 16 15 13 13 12 12 11 11 11 10 11 10 9 8 8 7 7 7 7
35 35 33 32 31 31 31 30 30 28 26 26 25 25 25 24 22 21 20 20 20 20 19 17 16 15 14 14 13 13 12 12 12 13 12 11 10 9 9 9 9 8
36 35 34 32 31 31 31 30 29 28 27 26 26 25 24 24 23 22 22 21 21 22 21 20 19 18 17 16 15 15 14 14 14 15 14 13 12 11 11 11 10 9
38 36 34 33 31 31 30 29 29 28 28 27 26 26 25 24 24 23 23 23 22 22 22 22 21 20 18 18 17 16 16 16 16 16 16 15 15 14 13 12 12 11
39 37 35 34 31 30 30 29 28 27 27 27 27 27 25 25 25 24 24 24 23 23 23 23 23 21 20 20 19 18 18 18 18 18 18 17 16 16 15 14 13 12
40 39 37 34 32 31 30 28 27 26 26 27 27 26 25 25 25 25 25 25 24 24 24 24 24 23 22 22 22 22 21 20 20 19 19 18 18 17 16 15 15 14
41 40 38 36 34 33 32 29 28 26 26 26 26 25 25 25 25 25 26 26 25 25 25 25 25 24 24 24 24 24 23 22 22 21 20 19 19 18 17 16 16 16
42 41 40 38 37 35 34 31 29 28 27 26 26 26 25 25 26 26 26 27 26 26 26 26 25 25 25 25 25 25 25 24 23 23 23 21 20 19 18 17 17 17
43 42 41 40 38 36 35 33 31 29 28 27 27 27 27 27 27 27 27 27 27 26 26 27 26 26 26 26 26 26 26 25 24 24 24 23 22 21 20 19 18 18
44 43 42 40 39 37 35 33 32 31 29 29 28 27 27 28 28 29 28 28 28 27 27 28 28 28 28 28 27 27 27 27 26 25 25 24 23 22 21 20 20 19
44 43 42 40 39 38 37 35 33 32 31 30 29 28 28 28 28 29 29 29 29 29 29 29 29 30 30 30 29 29 29 29 28 26 25 25 25 24 23 22 22 21
44 43 42 40 39 39 38 37 35 34 33 33 31 30 29 28 28 28 29 30 30 30 30 30 31 31 31 31 31 31 30 30 30 28 27 27 27 26 25 24 24 23
43 43 42 41 40 40 39 38 37 36 35 34 33 31 30 30 29 29 28 29 30 30 30 31 31 32 33 32 32 32 31 31 31 30 29 29 28 28 27 26 26 24
43 42 42 41 41 41 40 38 37 37 36 35 33 32 31 31 31 30 29 29 30 31 31 31 32 33 33 32 32 32 31 31 32 31 31 30 30 30 29 28 27 26
42 42 42 42 42 42 40 38 38 37 37 36 34 33 32 32 32 32 31 30 30 30 31 32 33 33 33 32 31 31 31 31 31 32 32 32 31 31 31 30 29 28
42 42 42 43 42 42 40 39 38 38 38 36 35 33 33 33 33 33 33 32 32 31 31 31 32 33 33 31 30 30 30 30 31 32 32 33 32 32 32 31 31 30
42 42 43 43 43 42 41 40 39 38 38 36 35 34 34 34 34 34 34 34 33 33 33 32 32 33 33 31 30 29 28 29 30 31 32 33 33 32 32 32 31 31
42 43 43 43 43 42 41 41 40 39 38 36 36 35 35 35 35 34 34 34 33 33 34 33 34 34 33 31 29 28 28 28 29 30 31 32 33 33 32 32 31 31
43 43 43 43 43 42 42 42 41 40 39 37 37 36 35 35 35 34 34 34 33 33 34 34 34 34 34 32 30 28 28 28 29 30 31 32 33 33 32 32 32 31
43 43 43 42 42 42 42 42 41 40 39 38 38 37 36 35 34 34 34 34 34 34 34 34 34 34 34 32 30 29 28 29 30 31 32 33 33 33 32 32 32 32
42 42 41 42 42 42 42 41 41 40 39 38 38 37 36 35 34 33 33 34 34 34 34 34 34 34 34 33 31 30 29 29 31 32 32 33 33 33 33 32 33 32
41 40 40 40 41 42 41 41 40 40 39 37 36 36 35 35 34 33 34 34 34 33 33 33 32 33 34 33 32 31 30 30 31 32 32 33 33 33 33 33 33 32
39 39 39 39 40 40 40 40 39 38 38 37 36 36 36 35 35 34 34 34 33 32 32 32 32 32 34 34 32 31 31 30 31 32 33 33 33 33 33 33 33 33
Wind_Direction
225 226 226 227 227 228 229 229 229 228 228 228 231 234 234 232 227 225 228 228 224 223 223 221 220 219 220 223 225 224 220 215 208 203 208 214 219 234 244 241 247 254
223 224 225 225 226 227 227 228 228 228 228 228 228 231 235 233 229 225 225 227 226 225 224 222 223 223 223 224 226 229 230 225 218 216 215 213 221 231 237 239 242 253
222 223 224 224 225 226 227 228 229 228 228 229 228 230 234 233 229 225 223 224 225 225 223 221 222 223 224 225 226 227 234 233 225 227 228 218 221 230 235 239 239 246
221 223 224 223 224 226 227 227 229 228 228 229 228 229 231 231 229 226 223 223 223 223 223 222 221 222 224 225 227 227 232 236 231 231 233 230 227 228 234 241 241 244
221 222 223 222 222 224 226 227 228 228 228 228 229 229 229 229 229 228 226 223 222 222 223 223 222 222 224 225 228 230 231 235 238 237 235 235 237 236 237 242 244 246
220 221 221 221 220 222 225 226 227 228 228 228 229 229 228 228 229 230 230 227 224 224 225 226 225 224 225 226 228 231 232 232 237 241 240 237 239 241 241 244 247 248
219 219 220 220 219 219 222 225 226 227 228 228 228 228 227 227 227 229 231 231 229 228 228 229 229 226 226 228 229 232 234 233 234 240 244 242 241 241 242 246 249 252
218 219 220 219 217 218 220 222 224 225 225 226 226 226 224 225 226 227 230 231 231 232 231 231 232 229 228 231 232 233 235 238 239 242 244 246 245 244 245 248 251 253
217 219 220 218 216 218 220 221 223 223 221 221 222 222 222 222 224 226 228 230 230 232 232 232 233 232 231 233 235 236 238 240 243 245 246 247 247 247 247 248 251 252
216 217 219 217 216 218 219 220 222 223 220 217 216 218 219 219 220 222 226 228 229 231 233 233 234 234 234 235 238 239 240 241 242 245 247 247 248 248 247 247 250 252
216 217 218 218 217 218 219 219 220 221 221 218 214 214 216 217 218 219 223 226 227 230 233 234 235 235 236 237 240 241 241 242 243 245 247 248 249 249 248 248 248 250
215 216 217 218 217 217 217 218 217 218 221 220 215 214 215 218 219 219 222 226 227 229 233 236 236 237 238 238 240 242 242 242 243 245 247 248 249 250 250 250 250 250
215 215 215 216 216 215 215 217 216 215 218 221 219 215 214 217 220 221 223 226 229 230 233 237 239 239 240 240 239 240 242 242 242 243 246 248 249 250 251 252 252 253
215 214 214 215 215 215 215 216 216 214 216 220 221 218 215 216 219 223 225 227 229 231 233 237 240 241 241 241 239 238 240 241 241 241 243 246 248 249 250 251 253 255
214 214 213 214 214 215 215 216 217 217 218 221 222 221 218 217 218 221 225 226 228 230 232 235 238 240 241 240 238 237 237 239 242 241 242 244 247 249 250 251 253 254
214 213 213 213 214 215 215 216 218 219 220 223 223 222 221 220 220 221 224 226 228 229 231 233 236 239 240 239 239 238 237 237 240 242 243 244 246 249 251 252 254 255
214 212 213 213 214 216 216 216 218 220 222 223 223 222 222 222 223 223 223 225 229 229 230 232 236 238 240 240 239 239 238 238 239 242 244 245 247 249 251 253 254 256
214 212 213 214 214 216 217 216 218 220 222 223 222 221 221 222 224 225 224 225 228 230 230 232 236 239 240 240 240 239 239 238 240 242 244 246 248 249 251 253 254 255
214 213 214 214 215 216 217 217 218 220 221 222 222 221 222 224 225 225 226 226 227 230 231 232 235 238 239 240 240 239 238 238 239 242 244 246 248 249 251 252 254 255
215 215 215 216 216 217 217 218 218 219 221 222 223 224 225 225 226 227 228 228 229 231 232 232 234 238 240 240 239 239 238 237 237 240 243 245 247 249 250 251 253 254
216 216 217 217 218 218 218 219 219 220 221 222 224 226 227 226 227 229 230 231 231 232 233 234 234 237 240 240 238 237 237 236 236 238 240 243 245 248 249 251 252 253
217 217 217 218 219 219 220 220 221 221 221 221 224 226 228 229 229 230 232 233 233 233 234 236 236 238 240 240 238 236 234 234 235 236 238 241 244 246 249 250 251 252
217 217 217 218 219 220 220 221 221 222 222 222 223 225 228 231 231 231 232 234 235 235 235 236 238 239 240 239 237 235 232 231 233 235 237 239 241 244 247 248 250 251
217 217 217 218 219 220 221 221 222 223 223 222 223 225 227 230 233 233 234 235 236 237 237 237 239 241 242 240 237 235 232 231 232 234 236 239 240 242 244 246 249 250
217 216 216 217 219 220 221 222 222 223 223 223 224 225 226 229 232 234 235 236 237 239 240 239 240 243 244 242 239 236 234 233 234 235 236 238 239 241 243 244 247 249
216 216 216 217 219 220 221 223 223 223 224 224 224 226 227 228 230 233 236 237 238 239 241 242 242 244 246 245 242 238 235 234 234 236 237 238 239 241 242 244 247 249
Height
1555 1557 1560 1562 1565 1567 1569 1571 1574 1576 1578 1580 1581 1583 1584 1586 1588 1589 1590 1591 1592 1593 1594 1595 1596 1597 1598 1598 1599 1599 1600 1601 1601 1602 1603 1603 1604 1605 1605 1605 1606 1606
1552 1554 1557 1560 1562 1564 1567 1569 1571 1573 1575 1577 1579 1581 1582 1584 1586 1588 1589 1590 1591 1592 1593 1594 1595 1596 1597 1597 1598 1599 1599 1600 1601 1601 1602 1603 1603 1604 1604 1605 1605 1606
1549 1552 1554 1557 1559 1562 1564 1567 1569 1571 1573 1575 1577 1579 1580 1582 1584 1586 1587 1588 1590 1591 1592 1593 1594 1595 1595 1596 1597 1598 1598 1599 1600 1601 1601 1602 1602 1603 1604 1604 1605 1605
1546 1548 1551 1554 1557 1560 1562 1564 1566 1568 1571 1573 1574 1577 1578 1580 1582 1584 1585 1587 1588 1589 1590 1591 1592 1593 1594 1595 1596 1596 1597 1598 1598 1599 1600 1601 1601 1602 1603 1603 1604 1604
1543 1545 1548 1551 1554 1557 1559 1561 1563 1566 1568 1570 1572 1574 1576 1578 1580 1581 1583 1584 1586 1587 1588 1589 1590 1591 1592 1593 1594 1595 1596 1597 1597 1598 1598 1599 1600 1601 1601 1602 1602 1603
1540 1542 1545 1548 1551 1554 1556 1558 1561 1563 1565 1568 1570 1572 1573 1575 1577 1579 1581 1582 1583 1585 1586 1587 1588 1589 1591 1592 1593 1593 1594 1595 1596 1596 1597 1598 1599 1599 1600 1601 1601 1602
1536 1539 1542 1545 1548 1551 1553 1556 1558 1560 1563 1565 1567 1569 1571 1573 1575 1577 1578 1580 1581 1583 1584 1585 1586 1587 1589 1590 1591 1592 1592 1593 1594 1595 1595 1596 1597 1598 1598 1599 1600 1600
1533 1536 1539 1542 1545 1548 1550 1553 1555 1557 1560 1562 1564 1566 1568 1570 1572 1574 1576 1577 1579 1580 1581 1583 1584 1585 1587 1588 1588 1589 1590 1591 1592 1593 1593 1594 1595 1596 1596 1597 1598 1599
1530 1533 1536 1539 1542 1545 1547 1550 1552 1554 1557 1558 1561 1563 1565 1567 1569 1571 1573 1574 1576 1578 1579 1580 1581 1583 1584 1585 1586 1587 1588 1589 1590 1590 1591 1592 1593 1594 1595 1596 1596 1597
1526 1529 1532 1536 1539 1541 1544 1547 1550 1552 1553 1555 1558 1560 1562 1564 1566 1568 1570 1571 1573 1575 1576 1577 1578 1580 1581 1582 1583 1584 1585 1586 1587 1588 1589 1590 1591 1592 1592 1593 1594 1595
1522 1525 1529 1532 1535 1538 1541 1544 1547 1549 1550 1552 1555 1557 1559 1561 1563 1565 1566 1568 1570 1572 1573 1574 1576 1577 1578 1580 1581 1582 1583 1584 1585 1586 1587 1587 1589 1589 1590 1591 1592 1592
1518 1521 1525 1528 1531 1534 1537 1541 1544 1546 1547 1549 1552 1554 1556 1558 1560 1562 1563 1565 1567 1569 1570 1571 1573 1574 1575 1577 1578 1579 1580 1581 1582 1583 1584 1585 1586 1587 1588 1589 1589 1590
1513 1517 1520 1524 1528 1531 1534 1537 1540 1543 1545 1546 1549 1551 1553 1555 1557 1558 1560 1562 1564 1565 1567 1568 1570 1571 1572 1574 1575 1577 1577 1579 1580 1581 1582 1583 1584 1585 1585 1586 1587 1587
1509 1513 1517 1521 1524 1527 1531 1534 1537 1539 1541 1543 1545 1548 1550 1552 1554 1555 1557 1559 1560 1562 1564 1565 1566 1567 1569 1570 1572 1574 1575 1576 1577 1578 1579 1580 1581 1582 1583 1584 1585 1585
1505 1509 1513 1517 1521 1524 1527 1530 1533 1536 1538 1540 1542 1545 1547 1549 1551 1552 1554 1555 1557 1558 1560 1561 1562 1563 1565 1566 1568 1570 1572 1573 1574 1575 1576 1577 1578 1579 1580 1581 1582 1583
1501 1506 1510 1513 1517 1519 1522 1526 1529 1532 1534 1536 1539 1541 1544 1546 1548 1549 1551 1552 1553 1555 1556 1558 1558 1559 1561 1563 1565 1567 1569 1571 1571 1572 1573 1574 1575 1576 1577 1578 1579 1580
1498 1502 1506 1509 1513 1515 1519 1522 1526 1529 1531 1533 1535 1538 1540 1542 1544 1546 1547 1549 1550 1551 1553 1554 1555 1556 1557 1559 1562 1564 1566 1567 1568 1569 1570 1571 1572 1573 1574 1575 1576 1577
1494 1498 1502 1505 1509 1512 1515 1519 1522 1525 1527 1529 1532 1534 1536 1538 1540 1542 1544 1545 1546 1547 1549 1550 1551 1552 1554 1556 1558 1560 1562 1564 1565 1566 1567 1568 1569 1570 1571 1572 1573 1574
1491 1495 1498 1501 1505 1508 1512 1515 1518 1521 1523 1525 1528 1531 1533 1535 1536 1538 1540 1541 1543 1544 1545 1546 1547 1548 1550 1553 1555 1557 1559 1561 1562 1563 1564 1565 1566 1567 1568 1569 1570 1571
1487 1491 1494 1498 1501 1505 1508 1511 1514 1517 1519 1522 1525 1527 1529 1531 1532 1534 1536 1538 1539 1540 1542 1543 1544 1545 1546 1549 1552 1554 1556 1558 1559 1560 1560 1561 1562 1563 1564 1565 1566 1567
1483 1487 1491 1494 1498 1501 1504 1507 1510 1513 1516 1519 1521 1523 1525 1527 1529 1531 1532 1534 1536 1537 1538 1539 1540 1541 1543 1545 1548 1550 1552 1554 1555 1556 1557 1557 1558 1559 1561 1562 1563 1564
1479 1483 1487 1490 1494 1497 1500 1503 1506 1509 1512 1515 1518 1520 1521 1523 1525 1527 1529 1530 1532 1533 1535 1536 1537 1538 1539 1541 1544 1547 1549 1550 1551 1552 1553 1553 1555 1556 1557 1558 1559 1560
1476 1479 1483 1487 1490 1493 1496 1499 1502 1505 1508 1511 1514 1516 1518 1519 1521 1524 1525 1527 1528 1529 1531 1532 1533 1534 1535 1538 1541 1543 1545 1546 1547 1548 1549 1549 1551 1552 1553 1554 1555 1556
1472 1476 1479 1483 1486 1489 1492 1496 1499 1501 1504 1507 1510 1512 1514 1516 1518 1520 1522 1523 1524 1526 1527 1529 1530 1531 1532 1534 1537 1539 1540 1542 1543 1544 1545 1545 1547 1548 1549 1550 1551 1552
1469 1472 1476 1480 1482 1485 1489 1492 1495 1498 1501 1503 1506 1509 1511 1513 1514 1516 1518 1519 1521 1522 1523 1525 1527 1527 1528 1530 1532 1535 1537 1538 1539 1540 1540 1541 1543 1544 1546 1547 1548 1549
1466 1469 1473 1476 1479 1482 1486 1489 1492 1495 1497 1500 1502 1505 1507 1509 1511 1512 1514 1515 1517 1519 1520 1521 1523 1524 1524 1526 1528 1531 1532 1534 1535 1535 1536 1537 1539 1541 1542 1543 1544 1545